Sigonella, Italy

4:12 PM CEST on June 24, 2017 (GMT +0200)
Sigonella Mil

Weather History for LICZ - April, 2013

Change the Weather History Date:

Thursday, April 11, 2013

  Actual Average Record
Temperature  
Mean Temperature 62 °F -  
Max Temperature 77 °F 72 °F 77 °F (2013)
Min Temperature 47 °F 49 °F 37 °F (1997)
Degree Days  
Heating Degree Days 3    
Growing Degree Days 12 (Base 50)    
Moisture  
Dew Point 48 °F    
Average Humidity 64    
Maximum Humidity 100    
Minimum Humidity 26    
Precipitation  
Precipitation 0.00 in 0.04 in - ()
Sea Level Pressure  
Sea Level Pressure 30.04 in    
Wind  
Wind Speed 5 mph ()    
Max Wind Speed 15 mph    
Max Gust Speed -    
Visibility 6.5 miles    
Events      
Averages and records for this station are not official NWS values.
T = Trace of Precipitation, MM = Missing Value Source: Averaged Metar Reports

Daily Weather History Graph

Daily Weather History Graph

Search for Another Location

Airport or City:

Trip Planner

Search our weather history database for the weather conditions in past years. The results will help you decide how hot, cold, wet, or windy it might be!

Date:

Astronomy

Apr. 11, 2013 Rise Set
Actual Time 6:31 AM CEST 7:31 PM CEST
Civil Twilight 6:04 AM CEST 7:58 PM CEST
Nautical Twilight 5:32 AM CEST 8:30 PM CEST
Astronomical Twilight 5:00 AM CEST 9:03 PM CEST
Moon 6:53 AM CEST (4/11) 8:47 PM CEST (4/11)
Length of Visible Light 13h 54m
Length of Day
13h 00m
New Moon, 1% of the Moon is Illuminated
Apr 11
New Moon
Apr 18
First Quarter
Apr 25
Full
May 2
Last Quarter
May 10
New

Hourly Weather History & Observations

Time (CEST) Temp. Dew Point Humidity Pressure Visibility Wind Dir Wind Speed Gust Speed Precip Events Conditions
12:55 AM 50.0 °F 50.0 °F 100% 30.04 in - ENE 2.3 mph - N/A   Clear
1:55 AM 51.8 °F 44.6 °F 76% 30.04 in - West 5.8 mph - N/A   Clear
2:00 AM 51 °F 46 °F 75% 30.05 in 6 mi West 5.8 mph - -  
2:55 AM 50.0 °F 44.6 °F 82% 30.04 in - West 2.3 mph - N/A   Clear
3:55 AM 50.0 °F 44.6 °F 82% 30.04 in - NW 5.8 mph - N/A   Clear
4:55 AM 50.0 °F 46.4 °F 87% 30.04 in - NNW 5.8 mph - N/A   Clear
5:00 AM 51 °F 46 °F 79% 30.05 in 6 mi NNW 5.8 mph - -  
5:55 AM 50.0 °F 50.0 °F 100% 30.04 in 6.2 mi NNW 1.2 mph - N/A   Scattered Clouds
6:55 AM 50.0 °F 50.0 °F 100% 30.04 in 6.2 mi South 2.3 mph - N/A   Scattered Clouds
7:55 AM 53.6 °F 48.2 °F 82% 30.04 in 6.2 mi WNW 4.6 mph - N/A   Scattered Clouds
8:00 AM 53 °F 47 °F 75% 30.06 in 6 mi WNW 4.6 mph - -   Partly Cloudy
8:55 AM 57.2 °F 48.2 °F 72% 30.06 in 6.2 mi West 2.3 mph - N/A   Partly Cloudy
9:55 AM 62.6 °F 44.6 °F 52% 30.06 in 6.2 mi NNW 2.3 mph - N/A   Partly Cloudy
10:55 AM 66.2 °F 44.6 °F 46% 30.06 in - NNW 2.3 mph - N/A   Clear
11:00 AM 67 °F 44 °F 32% 30.07 in 9 mi NNW 2.3 mph - -   Clear
11:55 AM 73.4 °F 46.4 °F 38% 30.04 in - North 3.5 mph - N/A   Clear
12:55 PM 73.4 °F 46.4 °F 38% 30.04 in 6.2 mi East 9.2 mph - N/A   Partly Cloudy
1:55 PM 77.0 °F 48.2 °F 36% 30.04 in 6.2 mi East 15.0 mph - N/A   Partly Cloudy
2:00 PM 77 °F 48 °F 26% 30.04 in 9 mi East 15.0 mph - -   Scattered Clouds
2:55 PM 71.6 °F 44.6 °F 38% 30.04 in 6.2 mi East 12.7 mph - N/A   Partly Cloudy
3:55 PM 71.6 °F 48.2 °F 43% 30.01 in 6.2 mi ENE 12.7 mph - N/A   Partly Cloudy
4:55 PM 73.4 °F 46.4 °F 38% 30.01 in 6.2 mi East 10.4 mph - N/A   Partly Cloudy
5:00 PM 73 °F 46 °F 27% 30.02 in 7 mi East 10.4 mph - -   Scattered Clouds
5:55 PM 69.8 °F 42.8 °F 38% 30.01 in - East 11.5 mph - N/A   Clear
6:55 PM 68.0 °F 41.0 °F 37% 30.01 in 6.2 mi ESE 6.9 mph - N/A   Partly Cloudy
7:55 PM 62.6 °F 46.4 °F 55% 30.01 in 6.2 mi SE 6.9 mph - N/A   Partly Cloudy
8:00 PM 62 °F 46 °F 45% 30.03 in 6 mi SE 6.9 mph - -   Scattered Clouds
8:55 PM 57.2 °F 53.6 °F 88% 30.04 in 6.2 mi South 3.5 mph - N/A   Partly Cloudy
9:55 PM 59.0 °F 53.6 °F 82% 30.06 in - NNW 2.3 mph - N/A   Clear
10:55 PM 59.0 °F 55.4 °F 88% 30.06 in - NNW 3.5 mph - N/A   Clear
11:00 PM 58 °F 56 °F 90% 30.07 in 6 mi NNW 3.5 mph - -   Clear
11:55 PM 55.4 °F 55.4 °F 100% 30.06 in - West 6.9 mph - N/A   Clear